Location:  
MeteoStar


Sort by weather type Sort by elevation Sort by visibility Sort from west to east north Sort from north to south Alphabetically Sort from strongest wind speed Sort from lowest to highest pressure Sort from highest to lowest dew point temperature Sort coolest temperatures to warmest Sort warm temperatures to coolest
 Metric

Current Observations for Saudi Arabia

Abha06:00ZClear77 504WSW 4 776856
Al Ahsa06:00ZNot Avail.95 3941008.6CALM91587
Al Baha06:00ZNot Avail.82 544WSW 6 815419
Al Qaysumah06:00ZNot Avail.95 5541008.0SSE 12 931174
Al-Jouf06:00ZNot Avail.82 3441005.9WSW 12 802260
Arar06:00ZNot Avail.91 5061005.4SSW 17 881820
Bisha06:00ZNot Avail.88 5541011.3WSW 4 863828
Dawadmi06:00ZClear90 3471004.0WSW 10 863248
Dhahran06:00ZNot Avail.95 3641006.1NW 8 9085
Gassim06:00ZClear91 5051006.6SW 7 882125
Gizan06:00ZClear95 7951008.1W 8 11119
Guriat06:00ZNot Avail.68 5051009.1W 16 681669
Hail06:00ZNot Avail.86 3951007.5WSW 16 833330
Jeddah King Abdul Aziz International Airport 06:00ZNot Avail.88 6651008.1CALM9049
Khamis Mushait06:00ZDust75 503CALM756778
King Khaled International Airport06:00ZClear93 3461009.9S 10 Gusting to 20 892014
Madinah06:00ZNot Avail.88 531010.6WSW 5 842145
Makkah06:00ZNot Avail.95 5931006.9CALM941017
Najran06:00ZNot Avail.88 3641012.1ESE 10 843976
Rafha06:00ZNot Avail.91 2541005.8SE 14 871473
Riyadh05:33ZClear91 2861009.6S 12 872083
Sharurah06:00ZClear97 3241009.3ESE 16 922362
Tabuk06:00ZNot Avail.79 4141008.7CALM792552
Taif06:00ZClear84 4861012.0WSW 10 824849
Turaif06:00ZNot Avail.73 3961007.0WNW 15 732667
Wadi Al Dawasser Airport06:00ZNot Avail.93 5961009.7SE 6 922047
Yenbo06:00ZNot Avail.81 7561007.1SW 4 8626

Atlantic
Tropical Watch